OBJECT E, 62733

Orbit data source: Space-Track

You're viewing an Uncataloged Satellite

Recently launched and/or uncataloged satellites may have evolving metadata. Metadata may include but not limited to: Owner, Maufacturer, Bus, Motor, and Mission.

OBJECT E, 62733 is a Chinese satellite in SSO that was launched on Mon, 20 Jan 2025 UTC via a GUSHENXING 1 launch vehicle from the Jiuquan Satellite Launch Center, China (JSC). Unknown objects in Earth's orbit typically refer to objects detected orbiting the Earth but have not yet been identified or cataloged. These objects could be anything from previously untracked satellites, spent rocket stages, debris from satellite collisions, or even natural meteoroids temporarily captured by Earth's gravity.

Loading next visibility...
OBJECT E details
Identifier
62733, 2025-013E
Orbit
SSO
Last TLE update10 hours ago
Origin
Flag of CNJTXZ (CN / PRC)
ManufacturerZKRG
MissionOperational spacecraft
Bus & MotorXINGYUN-01, Unknown motor
Mass~50 kg wet, ~50 kg dry
Launch date (UTC)
2025-01-20 (2 weeks ago)
Launch vehicle
GUSHENXING 1
Launch site
Jiuquan Satellite Launch Center, China (JSC)
Object typeUnknown
Shape & HBRUnknown
Radar Cross SectionMedium (>0.1 m² and <1 m²)

Expand to show TLE details & history

TLE from 10 hours ago
0 OBJECT E
1 62733U 25013E   25035.78029889  .00009013  00000-0  56496-3 0  9994
2 62733  97.6110 202.7559 0013129 235.2581 124.7412 15.09504144  2218
Epoch: 2025-02-04T18:43Z
Definitive object data (Epoch: 2025-02-04T18:43:37.824Z)
Latitude-0.00002°
Longitude146.66762°
Altitude545.968 km
Speed7.586 km/s
True Right ascension13h 31m 01s
True Declination0° 00' 00"
Sunlit
Object was in full shadow at TLE epoch
Visualization TLE readout
Latitude72.62215°
Longitude121.94823°
Altitude558.708 km
Speed7.584 km/s
Apparent Right ascension17h 00m 17s
Apparent Declination27° 09' 17"
Sunlit
Object is in full shadow
Visualization observer readout
Local Sidereal Time06:37:56
Azimuth22.916° NE
Elevation-19.182°
Doppler factor1
Orbital elements
Apogee altitude543.779 km
Perigee altitude525.627 km
Semi-major axis6,912.84 km
Eccentricity0.0013129
Inclination97.611°
RAAN202.7559°
Arg. of periapsis235.2581°
True anomaly124.86471°
Mean anomaly124.7412°
Eccentric anomaly124.80297°
Mean motion3.77623 °/min
BSTAR0.00056496
Orbital period95.33 mins
Loading maneuver chart data...
Loading historical data...
Loading historical data...
Loading historical data...
Loading historical data...
Loading historical data...
Loading historical data...
Loading historical data...
Other satellites on launch #13 in the year 2025 (2025-01-20 UTC)

OBJECT E Visibility forecast

Observer location: undefined°, undefined

Span
Click to sort rows by Start time (UTC) header in descending order
Start Az.
Max El. time (UTC)
Max El. Az.
Max El.
End time (UTC)
End Az.
6 mins2025-02-05 10:46:03.906Z149.552° SSE2025-02-05 10:49:03.906Z75.107° E39.572°2025-02-05 10:52:03.906Z359.867° N
6 mins2025-02-05 23:56:03.906Z10.235° NNE2025-02-05 23:59:03.906Z224.124° SW44.429°2025-02-06 00:02:03.906Z195.771° SSW
|